Lapse_Rate
4.1 3.1 3.0 2.9 1.9 0.2 -0.5 -1.2 -0.6 0.0 3.9 4.3 4.6 5.2 5.1 4.5 4.2 4.5 5.2 5.0 4.7 4.2 3.9 3.5 3.7 3.9 4.0 4.6 5.2 5.1 4.9 8.5
7.6 4.1 2.8 2.7 4.1 2.1 0.1 -0.6 -1.0 -0.5 2.6 4.1 4.5 4.6 4.8 4.7 4.3 4.5 5.0 4.9 4.7 4.3 3.9 3.7 3.9 4.3 4.1 4.7 5.2 5.4 6.3 8.8
9.2 6.0 3.6 2.9 4.8 4.1 1.9 0.2 -0.5 -0.7 0.1 3.5 4.7 6.2 7.4 6.9 6.5 6.0 4.8 4.6 4.3 4.6 4.1 3.9 4.2 4.1 4.4 4.8 5.3 8.0 8.7 9.5
9.9 8.0 4.8 3.8 5.3 4.6 5.7 2.5 0.3 -0.5 -0.2 0.6 4.7 7.7 8.1 8.6 8.9 6.2 5.2 4.7 4.4 4.5 4.3 4.0 4.7 6.8 6.2 4.8 7.3 9.5 8.4 8.5
10.2 9.7 7.9 6.0 5.6 7.6 7.9 7.4 4.8 0.6 -0.8 -0.4 -0.0 1.7 6.8 7.4 8.5 7.0 6.4 5.1 5.2 4.7 5.2 6.1 7.2 9.3 8.9 8.2 9.2 9.2 7.8 8.0
10.1 9.7 9.6 8.8 8.0 9.4 8.5 9.4 9.0 4.3 0.9 0.4 -0.5 -0.1 1.3 5.0 6.3 7.4 6.4 6.5 6.9 7.8 7.7 7.4 8.5 9.2 9.4 9.3 9.4 9.4 7.9 8.1
9.9 9.8 9.6 9.6 9.7 9.3 9.3 9.3 9.6 8.0 7.5 2.3 1.2 1.0 0.7 0.3 5.0 7.1 6.7 6.8 7.5 8.1 8.6 8.8 8.9 9.6 9.5 9.2 9.6 8.3 9.1 7.7
9.9 10.0 9.7 9.5 9.8 9.7 9.7 9.7 9.2 9.6 9.6 8.6 4.5 2.4 0.9 0.3 1.3 5.9 6.5 7.0 7.4 8.9 9.3 9.8 9.4 9.5 9.6 8.5 8.9 8.9 8.3 8.6
9.8 9.8 9.6 9.6 9.7 9.8 9.9 9.7 9.7 9.7 9.7 9.6 9.2 4.1 2.2 0.6 0.1 3.7 5.7 5.4 7.0 8.4 9.2 9.7 9.1 8.7 9.1 7.8 7.5 8.9 8.2 7.7
10.0 10.0 9.8 9.7 9.8 9.7 9.7 9.6 9.7 9.8 9.7 9.7 9.5 7.7 3.8 2.2 1.7 0.8 3.1 4.5 5.0 5.7 7.7 9.3 9.1 7.5 8.9 9.1 9.7 8.8 8.9 9.1
9.9 10.0 9.9 9.9 9.8 9.7 9.7 9.7 9.7 9.6 9.6 9.6 9.5 9.5 9.0 3.4 3.0 2.2 1.4 2.1 5.1 5.1 5.5 8.0 8.8 8.4 9.0 8.3 9.8 8.2 9.3 8.8
10.0 10.0 10.0 9.9 9.9 9.9 9.8 9.9 9.8 9.6 9.7 9.3 8.8 8.2 8.7 8.2 6.4 3.0 3.3 3.3 3.8 4.8 5.7 6.7 7.6 8.8 9.5 9.1 8.4 9.5 8.8 9.6
9.9 9.8 9.9 10.3 9.9 9.8 9.7 9.7 9.9 10.1 9.7 9.2 8.7 7.5 7.7 8.0 8.0 5.7 3.7 3.8 3.4 4.0 3.9 6.2 6.5 8.3 7.0 7.5 7.4 7.0 8.8 7.5
9.9 9.9 9.9 10.0 10.1 10.0 10.0 10.0 10.1 10.1 9.8 9.6 8.9 6.8 7.0 7.8 7.3 7.5 6.1 5.0 3.3 4.2 5.4 5.4 6.3 6.6 7.1 7.1 6.9 7.3 7.3 8.4
9.9 9.9 10.0 10.0 10.1 10.1 10.0 9.9 9.9 9.8 9.9 9.9 9.4 8.0 6.1 7.2 6.9 6.8 6.6 5.3 3.8 3.2 4.4 5.9 6.5 6.5 7.4 7.5 7.5 6.7 7.9 8.2
9.9 10.0 10.0 10.1 9.9 9.8 9.6 9.6 9.3 9.7 9.7 9.9 9.6 8.9 7.2 6.6 7.1 7.3 6.4 6.8 5.2 3.2 3.2 4.5 5.6 6.2 6.8 8.3 8.6 8.8 8.2 7.4
9.9 9.9 10.0 10.0 9.9 9.9 9.8 9.5 9.7 9.8 9.8 9.4 9.1 9.2 8.7 7.2 6.8 7.2 7.3 6.2 6.2 3.6 2.7 3.3 4.2 5.8 6.8 7.5 7.9 8.2 8.8 8.5
9.8 9.8 9.9 10.0 10.0 9.9 9.7 9.4 9.1 9.7 9.6 8.6 9.4 9.5 9.3 6.9 6.7 6.7 8.0 6.7 6.5 4.3 3.2 2.6 3.9 5.3 6.1 7.0 7.9 8.3 8.4 8.6
9.7 9.8 9.8 9.9 9.9 9.8 9.8 9.6 9.0 8.9 8.5 8.0 8.1 9.3 8.8 8.1 6.6 6.8 7.6 7.7 6.7 4.8 3.8 2.4 2.6 4.2 4.1 4.8 7.4 7.3 8.2 8.3
9.6 9.7 9.7 9.9 9.8 9.8 9.9 9.8 9.5 9.2 9.2 8.7 8.2 8.2 8.7 8.6 7.3 6.3 6.9 8.1 6.4 5.6 3.7 2.6 2.5 2.4 4.5 4.8 5.9 4.7 3.3 3.6
Wind_Speed
27 29 30 29 26 28 30 31 30 28 8 8 11 14 14 15 14 14 14 12 14 16 17 19 20 20 24 25 25 25 16 19
25 28 28 30 25 22 26 29 29 29 15 10 10 11 11 13 15 16 16 14 15 16 18 19 20 19 24 24 24 22 17 24
24 26 27 28 25 25 17 23 27 28 26 18 12 15 15 16 17 18 18 16 17 17 19 20 20 18 21 23 21 16 14 12
22 26 27 27 24 22 20 14 17 22 24 26 19 17 16 19 19 20 20 17 16 17 19 21 22 19 17 20 18 19 10 5
21 24 28 27 23 21 19 19 13 14 19 24 23 22 16 11 10 15 15 16 14 15 16 19 22 21 20 19 21 16 9 4
22 27 25 26 23 21 22 18 18 13 14 19 19 15 15 14 7 12 14 15 15 17 16 19 21 21 22 21 21 14 12 8
21 26 26 26 23 22 20 18 18 19 11 13 15 14 8 14 9 13 12 15 15 12 15 15 18 19 18 20 19 12 21 15
20 20 26 28 23 24 19 19 22 19 16 17 10 13 14 10 10 8 12 15 17 15 12 12 12 15 12 16 16 14 9 19
21 21 26 24 23 23 21 21 20 18 18 17 17 14 16 15 9 10 7 12 19 18 15 14 12 12 13 10 7 14 11 9
19 21 24 25 21 20 20 23 22 19 18 18 18 22 16 13 8 11 13 8 13 12 11 12 12 9 10 11 12 12 12 15
19 19 20 20 22 21 21 22 20 22 21 21 24 22 21 11 9 11 16 6 8 10 11 13 11 10 12 11 11 11 13 14
18 17 19 20 19 19 18 16 18 20 21 23 27 25 25 22 9 10 11 7 6 8 20 16 13 11 12 10 9 12 13 13
20 20 20 15 13 14 13 14 12 11 19 23 24 25 24 20 14 8 10 8 10 11 13 15 14 12 11 11 10 6 10 13
20 20 20 17 14 13 12 13 12 12 16 19 24 23 23 20 16 12 8 8 9 12 10 14 13 14 10 12 8 7 9 7
19 20 20 18 19 14 12 13 13 12 13 12 19 23 23 22 21 15 12 8 7 11 13 15 14 15 18 9 10 6 10 8
18 19 20 18 21 16 19 13 14 12 13 13 14 21 23 22 22 19 13 10 8 9 10 12 11 18 14 13 14 11 13 7
17 19 20 20 19 18 14 15 13 13 12 18 15 17 22 23 21 21 12 10 9 11 12 14 17 15 16 15 14 10 14 10
17 19 20 19 18 19 17 16 15 14 15 13 13 11 11 20 22 20 16 12 11 10 11 14 12 17 12 14 15 14 11 13
17 20 20 20 19 19 19 16 14 16 15 12 14 13 11 13 16 15 14 13 12 10 11 11 13 13 11 6 14 13 8 9
18 19 19 20 19 19 17 17 9 9 12 11 10 11 12 17 14 17 18 18 14 10 9 9 12 11 20 7 14 4 3 2
Wind_Direction
2 358 356 357 357 358 360 355 352 348 281 247 239 219 206 198 199 204 205 190 176 167 165 162 161 164 167 179 197 213 260 125
4 359 358 353 349 358 356 356 353 349 321 275 249 240 221 216 206 210 209 200 186 178 173 168 165 173 172 183 202 227 256 148
4 360 359 354 349 350 1 358 355 354 349 316 248 241 227 228 222 220 209 208 191 189 179 173 171 174 179 184 205 216 217 181
5 0 357 354 352 349 350 6 360 352 352 346 331 254 236 228 215 214 205 207 203 194 185 176 179 184 190 187 202 212 223 205
8 5 360 355 349 349 351 345 4 359 350 349 339 341 268 260 227 198 211 200 206 199 194 194 197 192 191 194 208 213 207 73
10 11 6 0 348 354 344 345 343 359 356 348 353 343 338 304 227 219 204 203 212 202 202 208 203 217 186 198 213 201 181 153
10 8 10 6 2 353 348 347 351 336 357 360 347 338 328 329 279 246 217 205 209 201 213 203 214 221 193 197 211 232 175 154
6 6 10 4 5 1 350 354 343 338 345 349 1 343 330 342 328 227 239 230 218 215 215 199 218 219 202 201 209 195 235 165
3 1 4 5 3 2 1 1 345 348 342 347 350 355 345 339 336 298 245 271 251 237 220 213 211 221 203 196 211 205 224 153
2 1 360 358 360 1 1 3 358 353 348 341 358 340 341 343 333 339 347 319 257 258 238 237 205 200 200 225 202 192 217 205
359 0 359 354 352 354 357 0 4 358 355 356 347 338 343 350 319 327 327 299 277 240 249 241 225 214 206 216 195 204 191 216
357 358 356 351 351 348 350 353 359 360 3 359 349 353 341 335 316 326 330 278 284 249 247 229 226 210 207 207 235 198 185 193
355 355 354 350 353 346 347 344 349 353 357 357 354 347 338 336 331 318 319 303 294 273 276 225 224 235 187 203 235 261 225 185
353 355 350 351 353 342 342 338 339 345 348 355 358 349 344 338 329 323 299 305 307 266 267 232 229 233 203 192 198 228 246 223
351 353 348 351 352 345 342 333 338 345 346 350 352 349 345 340 335 335 329 313 303 300 270 245 227 227 226 192 192 203 193 221
349 351 349 351 350 347 346 343 344 338 346 346 339 347 345 343 335 331 322 313 303 303 317 264 265 243 214 205 196 203 189 181
349 347 349 353 350 349 344 355 343 327 343 340 337 335 346 342 341 326 330 316 312 308 304 306 241 262 220 205 201 202 193 205
348 346 347 352 352 349 346 2 347 343 344 336 336 332 339 340 342 330 330 321 324 317 301 295 290 243 211 198 208 198 202 211
347 347 345 351 351 350 349 2 354 337 341 332 333 335 334 340 339 336 327 332 324 320 309 299 288 282 245 285 216 212 205 226
349 345 344 349 349 347 348 352 2 338 343 330 330 333 334 330 335 336 330 331 332 326 313 301 293 311 228 221 225 169 158 186